User: anonymous   Login
Location: Owatonna
(44.0840°N, 93.2260°W)
Time: 06:59:56
(UTC-05:00)
Language:

Cosmos 839 Rocket - Orbit

View from above orbital plane
View from above orbital plane
View from above satellite
View from above satellite

Ground track
Ground track

The orbit data is extracted from the following two-line orbital elements,

1 09013U 76067B   14294.51062192 -.00000127  00000-0 -24617-3 0  5547
2 09013 065.8660 089.0787 0705820 092.9845 330.0317 12.35311035726875
Epoch (UTC): 21 October 2014 12:15:17
Eccentricity: 0.0705820
inclination: 65.8660°
perigee height: 968 km
apogee height: 2084 km
right ascension of ascending node: 89.0787°
argument of perigee: 92.9845°
revolutions per day: 12.35311035
mean anomaly at epoch: 330.0317°
orbit number at epoch: 72687

The dashed part of the orbit path shows where the satellite is in the earth's shadow,  

DLR